Location: Buchloe
(48.0161°N, 10.7316°E)
Time: 04:39:44
(UTC+02:00)

ISS - Pass Details

Date: 12 July 2025
Orbit: 413 x 417 km, 51.6° (Epoch: 12 July)

Event Time Altitude Azimuth Distance (km) Brightness Sun altitude
Rises 02:47:41 0° 292° (WNW) 2,357 0.1 -17.5°
Reaches altitude 10° 02:49:49 10° 286° (WNW) 1,492 -1.0 -17.4°
Enters shadow 02:52:03 34° 260° (W) 714 -2.9 -17.2°
